Dewpoint
61 53 51 51 50 45 35 31 20 22 23 19 19 18 10 18 24 18 16 16 11 38 54 58 55 56 51 53 56 61 61 55 55 47 45 59 64 67 69 71 71 72 72 73 73 73 73 73 73 73 72 73 72 72 72 73 73 72 72 72 72 72 72 72 72 72 72 72 72 72 72 72 71 71 71 72 73 72 71 71 71 71 71 69 69 69 68 68 68 68 68 68 69 69 70 69 69
57 47 48 48 45 37 33 25 21 20 20 15 13 16 15 18 26 15 14 15 10 51 57 58 60 60 60 61 61 59 58 62 62 61 64 66 68 69 70 71 71 71 72 73 73 73 73 73 73 73 73 72 73 72 72 72 72 72 72 72 72 73 72 72 72 72 72 72 71 71 72 72 71 71 71 72 72 72 72 71 71 71 71 70 69 69 69 69 69 69 68 68 69 69 69 69 69
46 48 48 45 41 38 35 26 17 20 19 10 8 13 13 10 10 11 14 16 9 53 56 56 57 58 60 60 58 57 56 63 63 63 64 66 65 68 70 71 71 72 72 73 73 72 73 73 73 73 72 72 72 72 72 72 72 73 72 72 73 72 72 72 72 72 72 72 71 71 71 72 72 71 72 72 72 72 71 71 69 70 70 70 69 69 68 69 69 68 68 69 69 69 69 69 69
52 51 47 42 35 30 30 26 22 18 15 13 13 12 12 10 8 11 13 13 12 44 53 58 58 59 58 60 60 62 61 62 63 63 63 63 65 69 69 71 72 72 72 73 72 72 72 73 73 73 73 72 72 72 72 72 73 73 73 72 73 73 72 72 72 72 71 71 71 71 71 72 72 72 72 71 71 72 71 71 69 69 69 68 68 68 68 69 69 68 68 69 69 70 69 69 69
46 49 46 43 27 30 29 28 23 18 13 15 4 8 26 17 14 16 21 22 19 34 55 57 57 59 60 60 60 58 61 63 63 64 64 67 69 69 70 71 71 72 72 72 72 72 72 73 73 73 73 72 72 73 73 72 72 73 73 72 72 73 72 72 72 72 71 71 71 71 71 71 71 71 71 72 72 71 71 72 71 70 68 68 69 69 69 68 68 68 68 69 69 69 69 69 70
40 40 44 45 39 29 25 22 25 20 14 17 15 15 19 19 23 24 24 19 49 40 56 57 56 57 60 61 62 61 63 61 63 64 65 67 69 70 71 71 71 71 72 72 72 72 72 73 73 73 73 72 72 72 72 73 73 73 73 73 73 73 72 72 72 72 71 71 71 71 71 71 71 70 70 70 70 70 70 71 71 70 69 69 69 68 69 68 68 69 69 69 70 69 70 70 69
36 37 37 36 34 30 27 21 20 22 22 22 22 20 21 22 24 24 24 20 47 57 59 58 60 59 58 61 63 64 64 64 63 64 66 68 69 70 70 70 70 71 71 72 72 72 73 73 73 73 73 73 73 73 73 73 73 73 73 73 72 72 72 72 72 72 72 71 71 71 71 70 70 70 69 69 70 70 70 70 69 69 69 69 68 68 69 68 69 69 70 69 69 69 69 70 69
44 33 35 32 27 24 22 22 21 21 21 24 24 23 24 24 24 26 25 24 29 54 58 59 59 60 60 63 60 63 64 64 64 65 67 68 69 70 70 70 70 71 71 71 72 72 73 72 73 73 73 73 73 73 73 73 72 73 73 73 72 72 72 72 72 72 72 71 71 71 70 70 70 69 69 69 69 69 70 69 69 69 69 69 68 69 69 69 69 70 69 69 69 69 69 69 69
32 30 34 21 22 22 18 17 17 20 21 21 21 25 39 30 27 25 22 23 25 56 58 58 60 58 61 62 61 63 63 64 65 67 67 67 68 69 70 70 70 70 71 72 72 72 72 73 73 73 73 73 73 73 73 73 73 72 72 72 72 72 72 72 72 71 71 71 71 71 71 70 70 70 69 69 69 69 69 69 69 69 69 69 69 69 69 69 70 70 70 70 70 70 69 69 69
28 26 23 24 20 19 16 14 14 13 14 17 18 16 18 18 17 18 18 16 40 56 58 62 61 60 61 60 62 62 62 64 65 65 66 67 68 69 69 70 70 71 71 72 72 72 72 73 73 72 73 73 73 73 72 73 73 72 72 72 72 72 72 72 72 71 72 71 71 71 71 71 70 70 70 70 69 69 69 69 69 69 69 69 69 70 69 69 69 69 69 70 69 69 69 69 69
29 23 29 21 23 19 17 14 15 15 15 16 15 15 13 12 11 11 12 11 54 59 61 62 61 61 61 62 63 64 64 64 64 64 66 67 68 69 69 70 70 71 71 71 72 72 72 72 73 73 73 73 73 72 73 73 73 72 72 72 72 72 72 72 72 72 72 71 71 71 70 70 70 70 70 69 70 70 69 69 69 69 69 69 69 70 70 69 69 69 69 69 69 69 69 69 69
24 22 22 21 21 18 17 16 16 16 17 19 18 18 18 18 15 12 11 18 56 59 59 60 60 62 61 61 61 63 63 64 64 65 66 68 68 69 70 70 71 71 71 71 71 72 72 71 71 73 73 73 73 73 73 73 73 72 72 72 72 72 72 72 72 72 71 71 71 71 71 70 70 69 69 70 70 70 70 69 70 70 70 70 71 71 70 70 69 69 69 69 69 69 68 68 69
26 20 20 19 19 19 23 17 17 30 19 12 13 13 10 9 10 12 47 46 58 57 55 58 62 62 60 61 64 64 63 64 65 66 67 67 68 69 70 70 71 71 71 71 71 71 71 71 72 71 72 73 73 73 73 73 72 72 72 72 72 72 72 72 72 71 71 71 71 71 71 70 70 70 70 69 69 69 70 70 70 69 69 70 70 70 70 70 69 69 69 69 69 69 68 68 69
26 23 19 18 18 17 12 12 13 10 9 10 11 10 9 11 8 15 54 54 55 55 59 62 62 62 61 62 63 63 64 66 67 67 68 68 69 69 70 70 71 71 71 71 71 71 71 71 72 71 71 72 72 72 72 72 72 72 72 72 72 72 72 71 71 71 71 71 71 70 70 70 70 70 70 69 69 70 70 69 69 69 69 69 69 69 70 70 69 69 68 68 68 68 68 69 69
25 23 21 19 15 16 13 10 9 8 10 12 13 9 9 21 45 53 56 57 59 61 62 63 63 60 59 60 60 62 65 67 68 68 68 68 68 69 70 70 70 70 71 71 71 71 71 71 71 71 71 71 71 71 71 72 72 72 72 72 72 72 71 71 71 71 71 71 71 70 70 70 70 70 70 70 70 69 69 70 69 69 69 69 69 69 68 69 68 68 68 68 68 68 68 69 68
28 19 21 21 16 14 14 11 13 11 11 11 11 10 9 32 49 48 49 58 59 58 58 60 61 58 62 61 61 64 66 67 67 67 68 68 68 69 69 69 70 70 70 70 70 71 71 71 71 71 71 70 70 70 71 71 72 71 71 71 71 71 71 71 71 71 71 70 70 70 69 69 70 70 70 70 69 70 69 69 69 69 69 69 68 68 68 68 68 68 68 68 68 68 68 66 66
22 22 20 17 14 13 13 13 13 12 12 10 11 10 8 18 46 58 61 58 57 60 62 64 62 63 62 63 64 66 67 67 67 67 67 67 67 67 68 68 69 69 69 70 70 70 71 70 70 70 70 70 70 70 70 70 70 71 71 71 71 71 71 71 71 71 70 70 69 70 70 69 69 69 69 69 70 69 70 69 69 69 69 69 69 68 68 68 68 67 67 67 67 66 66 65 66
24 20 19 18 15 13 14 14 13 12 10 10 10 10 9 11 43 55 61 62 62 63 63 63 64 64 64 65 66 66 66 65 66 66 66 66 66 66 66 67 68 67 68 69 70 70 70 70 70 70 70 70 70 70 70 70 70 70 69 70 70 70 70 70 70 70 70 69 70 69 69 69 68 68 69 70 69 70 69 69 69 69 69 68 68 68 68 67 67 67 67 66 66 66 65 61 62
28 22 18 17 14 13 13 13 13 10 9 10 10 11 11 12 40 40 58 59 61 61 62 63 62 63 64 65 65 65 65 65 65 64 64 65 65 65 65 66 66 67 67 68 69 70 70 69 69 69 69 69 69 70 70 70 69 69 68 69 70 70 70 70 69 69 68 68 68 68 68 67 67 68 69 69 70 69 69 69 69 69 68 68 68 68 67 67 67 67 67 66 66 65 61 60 60
29 22 14 14 14 13 13 12 11 12 11 10 10 11 10 10 32 45 57 59 61 60 60 61 61 61 63 64 64 64 64 64 64 64 63 63 64 65 65 65 66 66 67 68 68 69 69 69 69 69 68 68 69 69 69 69 69 68 68 68 68 68 68 68 68 67 67 67 67 67 67 68 67 66 70 69 71 69 68 69 69 68 68 68 68 68 68 67 67 67 66 66 65 64 61 61 61
20 26 22 17 13 12 13 13 12 12 12 11 11 12 11 12 11 53 59 58 58 61 61 61 61 62 63 64 63 63 63 63 63 64 63 64 64 64 65 65 65 67 68 68 68 68 68 68 68 68 68 68 69 69 69 69 69 69 69 68 67 67 67 67 67 66 66 66 66 67 67 67 66 66 67 67 67 67 66 67 67 67 66 66 67 63 64 65 64 62 62 63 62 62 62 61 62
16 22 24 21 16 14 14 13 12 11 11 12 11 10 10 12 43 57 57 52 57 60 62 62 63 63 63 63 63 62 61 61 62 63 63 64 63 63 64 65 66 67 68 67 67 68 68 68 68 68 68 68 68 68 68 69 68 68 68 67 66 66 67 67 66 66 66 66 67 67 67 66 65 65 65 65 66 66 66 65 64 64 65 64 65 63 63 63 62 62 63 63 62 62 62 62 61
25 25 21 18 14 13 14 13 12 12 11 11 11 11 11 11 12 55 54 50 56 62 63 62 63 63 63 64 63 62 61 60 61 63 64 63 63 63 64 65 66 66 67 67 67 68 68 68 67 67 67 67 68 68 68 68 68 68 67 67 66 66 66 66 66 66 66 66 66 67 65 65 64 64 64 64 64 65 65 64 63 64 64 63 64 64 63 62 62 62 62 62 61 62 63 63 62
26 25 23 22 17 13 13 12 12 10 10 9 10 13 10 10 13 22 42 44 61 63 64 63 63 63 63 63 62 62 62 61 61 63 64 63 63 63 64 65 66 66 66 66 67 67 67 67 67 67 67 67 67 68 68 67 67 66 67 68 66 68 67 66 66 66 66 66 66 66 66 65 64 64 63 64 64 64 64 64 64 63 64 64 64 64 63 62 62 62 62 61 62 62 63 62 62
21 20 19 18 17 15 13 11 9 9 9 10 11 10 10 10 9 45 47 60 62 63 63 62 63 63 63 62 62 62 62 62 62 63 64 63 63 64 65 65 65 65 66 66 67 67 67 67 67 67 67 67 67 67 67 67 66 66 67 66 67 69 65 66 66 66 66 66 66 66 67 64 63 64 63 64 63 63 64 64 63 63 64 64 63 63 63 63 63 62 62 62 61 61 61 62 62
21 22 21 19 16 14 11 8 7 7 9 10 10 9 9 8 16 42 51 62 63 63 62 62 63 63 62 62 61 61 61 61 62 63 63 63 64 64 64 65 65 65 65 66 66 66 67 67 66 66 66 67 67 67 66 66 66 66 66 66 66 67 65 66 66 65 65 65 65 65 65 64 64 63 63 63 64 63 64 64 64 64 64 64 64 63 63 63 62 61 61 61 61 61 61 62 61
16 15 14 13 12 10 8 6 5 6 8 10 9 8 8 8 26 42 58 63 63 63 62 62 62 62 62 61 61 61 61 61 62 63 63 63 64 64 64 64 64 65 66 66 66 66 67 66 66 66 67 67 67 66 66 66 66 65 65 65 66 65 65 66 66 65 65 64 64 64 64 64 63 63 63 63 64 64 64 64 64 64 63 63 64 63 63 63 62 63 62 61 61 61 62 62 61
13 10 9 9 8 6 6 5 5 7 6 9 8 7 8 7 26 46 61 63 63 62 62 62 62 62 62 61 60 60 61 61 62 62 62 63 63 64 64 64 64 65 65 65 66 66 67 66 66 66 66 66 66 66 66 66 66 65 65 65 65 64 65 66 65 65 65 63 64 64 64 64 64 64 64 63 63 63 63 63 63 63 63 63 63 63 63 62 63 63 64 63 63 63 63 61 61
11 13 9 10 9 7 8 6 6 8 6 10 9 9 6 7 3 46 62 63 62 62 62 62 62 62 61 60 60 60 61 61 62 62 62 63 64 65 64 64 64 65 66 66 66 66 66 66 66 66 66 66 65 65 66 66 65 65 65 65 65 65 65 65 65 65 63 63 63 63 63 64 64 64 63 63 64 62 62 62 62 62 62 63 62 63 63 62 63 63 63 63 63 62 61 61 62
20 19 10 10 10 9 8 9 8 8 8 11 7 7 7 7 7 48 63 62 62 62 61 61 61 61 61 60 60 60 60 61 61 62 63 63 64 64 64 64 65 65 65 66 66 66 67 66 66 66 66 66 65 65 65 65 65 65 65 65 66 65 64 64 65 64 64 63 63 62 62 63 63 63 63 63 62 61 61 62 62 61 61 62 63 63 62 62 63 63 62 63 64 61 61 59 59
11 12 14 12 10 10 8 13 10 8 10 10 7 9 8 9 10 38 62 62 62 61 61 61 60 61 60 60 60 60 60 61 61 62 63 63 64 64 64 65 65 65 65 66 66 66 66 66 65 65 66 66 66 65 65 65 65 65 65 65 66 65 65 64 63 63 63 63 63 62 62 63 62 63 63 62 61 60 60 60 60 61 62 62 63 63 63 62 62 62 62 62 61 62 62 62 60
14 9 10 17 9 9 9 11 14 7 8 9 7 14 8 8 8 14 62 62 61 61 61 60 60 60 60 60 59 59 60 60 61 62 63 63 64 64 64 65 65 65 65 65 66 66 65 64 64 64 66 65 65 65 65 65 65 64 65 67 65 64 64 64 63 64 63 63 63 62 62 63 62 62 63 62 61 61 60 60 60 62 62 62 62 62 62 61 61 62 61 61 62 62 62 61 60
19 11 17 15 14 13 10 10 10 9 8 9 6 7 6 7 8 20 60 61 61 60 60 60 60 60 60 59 59 59 59 60 61 61 63 64 64 64 64 65 65 64 65 65 66 65 64 64 64 64 65 65 64 64 64 64 64 64 65 67 66 64 64 63 63 63 63 63 62 62 62 63 62 62 63 62 61 61 60 61 61 63 63 62 61 60 60 61 61 61 61 61 62 62 62 62 61
14 17 15 21 13 14 12 10 11 10 9 6 6 6 10 11 14 16 54 61 60 59 60 60 60 60 60 59 59 59 60 60 60 61 63 64 63 64 64 65 64 64 64 65 66 65 64 64 63 63 64 64 64 64 64 64 64 64 65 65 66 64 63 63 63 64 63 63 63 62 63 64 63 62 63 62 61 61 61 61 62 63 63 61 60 60 60 60 61 62 61 62 62 60 60 60 59
12 14 13 14 16 15 12 10 10 7 8 9 11 10 9 7 7 17 46 60 59 59 59 59 59 59 59 59 59 59 60 60 60 62 63 63 63 64 64 64 63 63 64 65 65 65 65 64 63 63 63 63 63 63 63 63 64 64 64 64 64 64 63 63 63 64 64 63 63 63 63 63 64 62 63 63 62 62 61 62 63 62 62 61 61 61 61 61 61 60 61 61 61 59 60 59 59
13 16 16 20 16 13 12 11 10 8 7 5 7 6 6 8 8 12 31 57 57 58 58 58 59 59 58 59 59 60 60 60 62 63 63 63 63 63 63 63 63 63 63 64 64 65 64 64 63 63 63 63 63 62 63 63 64 64 64 64 64 63 63 64 63 63 63 63 63 63 63 62 63 63 63 63 63 62 61 62 62 63 61 61 61 61 60 60 61 61 61 62 61 60 60 60 58
12 15 14 11 11 10 11 11 9 8 7 8 8 9 9 8 8 13 25 48 56 56 56 57 58 58 58 59 60 60 61 61 62 63 63 63 63 63 62 62 62 62 62 63 64 64 64 64 63 62 62 63 63 63 63 64 64 64 62 63 63 63 63 62 63 62 62 61 62 63 63 63 63 64 63 63 62 64 62 61 62 61 61 62 61 60 60 60 60 61 61 61 60 58 59 60 59
15 12 12 10 12 12 12 13 14 14 18 15 15 11 8 8 11 15 30 49 53 55 56 56 57 58 58 59 59 60 61 61 62 62 62 62 62 62 62 62 62 62 62 63 63 64 64 64 63 63 62 63 63 63 64 64 64 64 63 63 60 62 62 61 60 60 60 62 62 62 62 62 62 63 63 62 63 62 61 61 61 61 60 60 60 60 59 62 61 61 61 60 59 59 59 60 60
24 16 14 14 12 14 14 17 16 17 17 14 17 17 16 17 15 15 37 49 52 54 55 56 57 58 58 59 59 60 60 60 61 61 61 61 62 62 62 62 62 62 62 62 63 63 63 63 63 63 63 63 63 63 63 63 62 63 62 59 61 58 59 60 60 60 61 61 60 61 61 61 62 62 63 63 62 62 61 61 61 60 60 62 61 60 60 59 60 60 59 60 59 60 60 60 59
22 21 18 15 16 15 13 23 24 23 22 21 20 18 19 21 20 17 36 49 50 53 55 56 58 58 58 58 59 60 59 60 60 59 60 61 61 61 61 61 61 60 60 61 62 62 63 63 62 62 62 62 62 63 63 62 62 61 60 60 59 58 58 60 60 60 59 60 59 60 60 60 61 61 62 62 61 61 61 61 60 60 60 61 60 60 59 59 59 59 59 59 58 57 56 58 59
27 25 20 18 17 16 14 16 22 29 27 30 20 18 13 20 14 15 20 47 51 52 54 55 56 58 59 59 60 60 59 60 59 59 59 60 60 60 60 60 60 59 59 60 61 62 62 62 62 62 62 62 62 63 62 61 60 58 58 58 59 58 59 58 58 57 58 59 58 58 59 59 60 61 60 61 62 60 59 60 60 59 60 60 59 59 59 59 59 59 59 58 56 57 56 57 59
22 27 23 20 19 17 16 20 19 21 17 28 12 12 15 18 24 15 28 47 50 52 53 56 57 58 59 59 60 59 60 60 60 59 59 60 60 60 60 60 59 59 59 59 61 62 62 61 62 62 61 61 61 61 61 60 60 57 57 56 56 56 56 57 57 57 56 57 57 56 57 58 59 58 58 59 61 60 59 58 59 60 59 60 59 59 59 59 58 59 59 59 56 56 58 56 57
17 18 24 21 18 19 18 17 21 16 12 20 23 12 12 18 20 17 27 47 50 51 53 56 57 58 58 59 59 58 59 60 60 60 60 60 60 59 59 59 59 59 59 60 60 61 61 61 61 61 61 61 60 60 60 59 57 57 57 56 56 57 56 54 55 56 57 55 56 56 56 57 58 58 57 57 58 59 59 58 58 58 58 58 60 59 59 60 60 60 60 59 59 58 56 55 57
17 25 25 22 20 20 21 20 18 18 28 28 26 15 11 9 13 26 35 48 50 51 53 56 57 57 57 58 58 58 59 60 60 60 60 60 60 59 59 59 59 59 59 60 60 60 60 61 61 61 61 61 60 60 60 58 57 56 56 55 56 56 56 55 56 56 55 56 56 56 56 56 56 56 56 56 57 59 59 58 57 57 58 58 59 58 59 59 60 60 60 58 58 58 57 58 56
17 24 23 22 21 21 20 20 20 20 16 11 17 27 13 15 20 30 46 48 50 52 54 56 57 57 57 57 57 57 59 60 60 60 59 59 59 59 59 59 59 59 59 59 60 60 61 61 61 61 61 60 60 60 59 56 57 56 55 55 55 54 55 56 57 57 56 56 55 54 56 55 56 56 56 56 55 58 60 58 56 56 56 57 58 58 57 58 58 59 58 58 58 56 56 57 57
17 19 25 21 21 20 19 19 13 17 10 9 13 23 11 15 24 24 28 46 49 51 54 56 56 56 57 57 57 57 59 60 60 60 60 59 59 59 59 58 58 59 59 59 59 61 61 61 61 61 60 60 60 59 59 56 56 56 54 54 54 54 55 55 55 54 54 54 54 53 53 54 55 55 55 55 54 55 56 57 56 56 56 58 58 57 57 57 57 56 56 57 57 57 57 57 57
24 19 18 16 19 22 25 21 20 14 8 12 15 26 16 12 21 23 27 28 43 49 54 56 57 57 57 57 57 57 58 59 60 60 60 60 60 60 60 59 59 59 59 59 59 60 61 61 61 60 60 60 59 59 57 56 55 55 54 54 54 54 55 55 54 53 54 53 53 52 53 53 54 54 54 54 54 55 56 57 56 56 57 58 57 57 56 57 56 56 56 56 56 57 56 57 56
18 18 16 13 15 20 15 21 19 8 11 16 17 25 19 14 18 32 31 33 43 51 54 55 56 56 56 57 57 58 58 59 59 59 60 60 60 60 60 60 60 59 59 58 58 61 61 61 61 60 60 59 59 58 57 57 55 54 54 54 54 54 54 54 53 53 54 53 53 53 52 53 52 53 53 53 53 54 56 56 56 55 56 54 55 54 54 55 54 54 54 55 55 55 56 57 55
16 17 17 15 13 12 8 15 6 6 11 15 23 22 17 17 25 36 40 40 45 52 54 55 55 56 56 56 57 58 58 58 58 58 59 59 60 59 59 60 60 60 59 59 59 61 62 61 60 60 59 59 58 58 57 57 57 55 54 54 54 54 54 53 53 54 53 53 53 53 52 52 52 53 52 53 51 52 54 54 54 54 53 53 53 53 53 53 53 52 52 52 52 52 53 54 54
13 12 15 11 6 6 4 12 12 12 14 19 20 24 17 26 33 39 42 45 45 51 55 55 55 56 56 56 57 57 57 57 57 57 58 59 59 59 60 60 60 60 59 59 59 60 61 61 61 60 59 58 58 57 57 58 57 56 54 53 54 54 53 53 54 54 54 54 53 52 52 52 52 53 52 52 52 52 53 53 53 52 52 52 52 51 51 51 50 50 50 50 50 50 51 50 50
9 11 10 14 15 11 3 12 5 8 10 17 24 15 13 24 30 42 45 50 48 53 55 55 56 56 55 55 55 56 56 54 56 56 56 58 59 59 59 60 60 60 60 60 59 60 60 60 60 59 58 58 58 57 58 59 58 55 54 53 53 53 53 54 54 55 55 54 53 52 52 53 53 52 53 53 53 52 51 52 52 52 51 51 51 51 51 50 50 51 51 51 51 50 49 49 48
19 14 12 12 12 20 7 18 17 19 15 13 21 19 27 34 41 44 50 52 54 54 55 55 55 55 55 55 55 55 55 55 54 54 56 57 58 59 59 60 60 60 60 61 60 60 60 59 59 58 58 57 57 57 58 59 57 54 54 54 53 54 55 54 54 55 55 54 53 53 53 53 53 52 51 53 52 52 52 52 51 51 50 50 50 50 49 49 49 50 49 49 49 51 49 48 48
21 11 12 13 17 16 18 18 23 15 17 12 16 31 34 36 43 44 50 52 53 54 55 55 55 55 54 54 54 54 55 55 53 54 56 58 58 58 59 60 60 60 61 60 60 60 59 59 58 58 57 57 57 57 57 58 57 54 54 54 54 54 54 54 54 55 55 54 53 53 53 53 52 52 52 51 51 50 51 51 50 50 49 49 49 49 49 49 49 49 49 48 48 48 48 47 47
16 14 13 21 24 25 20 12 16 13 9 12 26 27 28 26 30 42 49 50 52 53 53 53 53 53 53 53 53 53 53 54 54 55 57 58 58 59 60 60 60 61 60 59 59 59 58 58 58 57 57 56 56 57 57 57 56 54 54 54 54 54 54 54 55 55 55 54 53 53 53 52 51 52 52 51 51 51 53 53 49 48 48 48 48 48 48 48 48 48 48 48 48 48 49 48 49
12 16 17 13 11 11 20 20 10 8 6 10 22 27 28 26 30 39 46 49 50 51 52 52 52 52 53 53 53 54 54 54 55 55 56 57 58 58 59 59 60 60 60 59 59 58 58 57 56 56 57 57 57 57 57 57 56 55 55 54 54 54 55 55 55 55 55 53 53 53 52 51 51 51 52 50 50 50 49 48 48 48 48 47 47 47 48 47 47 48 48 47 47 47 47 47 47
23 18 18 26 21 21 12 16 18 17 8 9 18 24 21 33 34 39 41 45 48 49 51 51 52 52 52 53 54 53 51 53 55 56 56 57 58 58 59 59 59 59 59 59 59 58 58 57 57 57 57 57 57 57 57 56 56 56 55 55 55 55 55 55 55 55 54 53 53 52 51 50 50 51 50 50 50 49 49 48 48 49 48 47 47 47 47 47 47 48 48 48 46 46 47 46 46
22 18 20 19 25 30 22 24 16 14 15 11 17 19 24 31 40 44 45 46 48 48 48 50 51 53 53 53 53 53 54 55 55 55 56 57 57 58 58 59 59 58 58 58 58 58 58 58 58 58 58 58 57 57 57 57 57 56 56 56 56 55 55 55 55 55 54 53 52 51 51 50 51 50 50 49 49 49 50 50 50 50 48 47 47 46 47 47 48 47 46 47 46 47 47 46 47
25 25 26 22 19 17 14 16 23 23 20 15 17 14 22 32 47 47 46 48 49 50 50 50 51 52 52 52 54 54 54 55 55 55 55 56 57 57 58 58 57 57 57 57 56 57 58 58 59 58 58 58 57 57 57 57 57 57 57 57 57 56 55 54 54 54 53 52 51 51 50 50 49 50 49 49 49 49 50 50 50 49 48 48 47 47 48 47 47 46 46 48 46 46 46 45 45